Location: Ba�os de Rioja
(42.5123°N, 2.9464°W)
Time: 05:00:35
(UTC+00:00)

Daily predictions for brighter satellites

Satellite Brightness Start Highest point End
(mag) Time Altitude Azimuth Time Altitude Azimuth Time Altitude Azimuth
Cosmos 2237 Rocket 4.5 03:34:18 17° NNE 03:34:18 17° NNE 03:35:29 10° NNE
USA 215 4.3 03:34:20 10° NE 03:38:28 36° NNE 03:38:28 36° NNE
ATLAS CENTAUR R/B 4.4 03:49:20 14° NE 03:49:20 14° NE 03:49:59 10° NE
Cosmos 1943 Rocket 3.9 03:55:25 18° N 03:58:23 28° NE 04:03:03 10° ESE
NOSS 3-1 (A) 4.1 04:01:46 63° NNW 04:03:13 79° NE 04:11:55 10° SE
USA 267 4.0 04:06:35 10° SE 04:10:41 40° SSE 04:10:41 40° SSE
SL-16 R/B 3.0 04:15:01 44° NNE 04:15:01 44° NNE 04:18:49 10° NNE
Cosmos 2369 Rocket 3.6 04:21:27 10° N 04:26:44 37° ENE 04:31:59 10° ESE
CZ-4C R/B 3.9 04:34:38 22° NNW 04:34:38 22° NNW 04:38:17 10° NNE
Cosmos 2251 Rocket 4.3 04:36:06 41° N 04:36:06 41° N 04:39:40 10° NNE
Lacrosse 5 2.5 04:36:01 48° NNE 04:36:39 51° NE 04:41:35 10° ESE
Cosmos 2221 3.5 04:42:16 20° SSE 04:44:56 46° E 04:49:03 10° NNE
CZ-2C R/B 2.4 04:45:19 10° N 04:50:10 68° NW 04:50:10 68° NW
Meteor 2-3 Rocket 3.9 04:44:50 10° N 04:50:36 74° E 04:56:24 10° SSE
ALOS 3.6 04:53:53 10° NNE 04:58:17 39° E 05:02:38 10° SSE
Cosmos 1484 Rocket 3.5 04:54:29 10° NNE 04:58:23 55° E 05:01:51 13° S
Cosmos 1605 Rocket 3.9 04:58:21 10° NNW 05:04:29 62° W 05:10:30 10° S
ADEOS 4.4 05:04:47 10° N 05:08:26 32° NW 05:08:26 32° NW
GEOS 3 Rocket 3.6 05:06:41 10° NNE 05:12:01 78° NW 05:14:28 33° SW
STARLINK-1103 4.4 05:12:06 30° S 05:13:36 46° SE 05:17:30 10° ENE
Cosmos 2237 Rocket 4.2 05:16:08 12° NNW 05:16:08 12° NNW 05:17:33 10° NNW
STARLINK-1128 4.3 05:14:21 32° SSW 05:15:49 49° SE 05:19:42 10° ENE
PSLV R/B 4.3 05:12:23 10° NNE 05:16:05 56° E 05:19:50 10° S
Cosmos 407 Rocket 3.6 05:11:34 10° SSW 05:16:53 81° ESE 05:22:12 10° NNE
Meteor 1-27 4.0 05:12:20 10° SSW 05:17:53 77° W 05:23:27 10° N
Cosmos 1140 Rocket 4.1 05:13:03 10° S 05:18:11 59° ESE 05:23:21 10° NNE
STARLINK-1101 4.3 05:16:40 30° SSW 05:18:20 50° SE 05:22:16 10° ENE
Cosmos 1153 Rocket 4.3 05:13:15 10° NNW 05:19:23 73° W 05:25:28 10° S
STARLINK-1113 4.1 05:18:40 31° SSW 05:20:17 53° SE 05:24:13 10° ENE
Aureole 2 Rocket 2.8 05:20:04 28° N 05:21:24 55° ENE 05:24:31 10° SSE
CZ-4B R/B 2.6 05:18:46 10° N 05:22:18 57° WNW 05:22:18 57° WNW
STARLINK-1102 4.1 05:21:14 29° SSW 05:23:04 55° SE 05:27:03 10° ENE
STARLINK-1119 4.0 05:23:03 29° SSW 05:24:51 58° SE 05:28:49 10° ENE
ATLAS CENTAUR R/B 3.4 05:25:33 16° NNW 05:25:33 16° NNW 05:27:48 10° N
Meteor 1-31 Rocket 3.4 05:22:56 10° N 05:25:46 36° NW 05:25:46 36° NW
STARLINK-1111 4.0 05:25:44 27° SSW 05:27:45 61° SE 05:31:47 10° ENE
METEOR-M 4.3 05:22:52 10° NNE 05:28:15 75° ESE 05:33:34 10° S
Cosmos 1805 Rocket 4.2 05:24:42 10° N 05:28:58 56° E 05:33:13 10° SSE
SKYMED 2 3.5 05:24:42 10° SSE 05:29:03 89° W 05:33:25 10° NNW
STARLINK-1114 3.8 05:27:27 28° SSW 05:29:26 64° SE 05:33:25 10° ENE
Cosmos 1727 Rocket 4.0 05:24:17 10° SSW 05:30:21 58° W 05:36:27 10° N
Sich 1 4.3 05:27:08 10° N 05:31:14 42° ENE 05:35:19 10° SSE
STARLINK-1073 3.8 05:30:19 25° SW 05:32:31 66° SE 05:36:34 10° ENE
STARLINK-1130 (DARKSAT) 3.7 05:31:49 26° SW 05:33:58 69° SE 05:37:58 10° ENE
SOZ 3.6 05:35:01 66° NNW 05:35:12 75° NNE 05:37:36 10° ESE
Cosmos 1500 Rocket 3.6 05:32:04 10° NNW 05:36:24 52° W 05:40:39 10° S
STARLINK-1121 3.7 05:34:58 24° SW 05:37:21 73° SE 05:41:25 10° ENE
STARLINK-1084 3.6 05:36:13 24° SW 05:38:33 76° SE 05:42:33 10° NE
STARLINK-1118 2.9 05:39:19 44° NNW 05:39:19 44° NNW 05:41:32 10° NE
Cosmos 2084 3.9 05:35:06 10° SSW 05:39:33 67° SE 05:44:02 10° NE
Cosmos 2173 Rocket 4.0 05:33:15 10° N 05:39:35 87° W 05:45:46 10° S
H-2A R/B 3.2 05:36:34 10° N 05:40:35 35° WNW 05:42:50 22° WSW
Cosmos 1190 Rocket 3.9 05:35:40 10° SSW 05:40:55 74° WNW 05:46:15 10° NNE
Cosmos 614 Rocket 4.0 05:36:12 10° SW 05:41:10 55° WNW 05:46:17 10° NNE
STARLINK-1106 3.6 05:39:33 22° SW 05:42:07 79° SE 05:46:12 10° NE
Cosmos 1943 Rocket 2.4 05:37:04 10° NW 05:42:18 45° WSW 05:47:29 10° S
Cosmos 1400 Rocket 3.9 05:42:02 10° S 05:45:52 47° E 05:49:48 10° NNE
Cosmos 1869 3.4 05:42:54 10° SSW 05:46:48 52° W 05:50:41 10° N
STARLINK-1112 3.5 05:44:21 20° SW 05:47:06 86° SE 05:51:11 10° NE
Okean O Rocket 2.4 05:42:52 10° NNE 05:47:10 54° E 05:51:24 10° S
Cosmos 1743 Rocket 4.1 05:44:36 10° NNW 05:48:32 34° W 05:52:28 10° SSW
Cosmos 2100 Rocket 4.0 05:48:58 10° NNW 05:55:05 62° W 06:01:07 10° S
Shenzhou-11 Module 1.7 05:56:37 27° WSW 05:57:50 68° SSE 06:00:29 10° E
SL-16 R/B 3.8 05:56:55 14° WNW 05:58:08 15° NW 06:01:25 10° N
Cosmos 676 Rocket 4.0 05:53:06 10° SSW 05:58:25 86° WNW 06:03:48 10° NNE
Cosmos 1000 Rocket 4.5 05:55:37 10° SSW 06:01:41 60° W 06:07:51 10° N
STARLINK-1070 3.5 06:00:47 23° WNW 06:02:00 35° NNW 06:04:44 10° NE
STARLINK-1124 3.8 06:01:29 22° WNW 06:02:37 29° NNW 06:05:15 10° NE
STARLINK-1066 3.5 06:01:39 23° WNW 06:02:55 34° NNW 06:05:38 10° NE
STARLINK-1081 3.5 06:01:52 23° WNW 06:03:07 34° NNW 06:05:51 10° NE
FENGYUN 3A 3.8 05:58:00 10° N 06:03:17 54° WNW 06:08:33 10° SSW
STARLINK-1069 3.6 06:02:18 22° WNW 06:03:35 34° NNW 06:06:18 10° NE
STARLINK-1085 3.6 06:02:31 22° WNW 06:03:49 33° NNW 06:06:32 10° NE
STARLINK-1086 3.6 06:02:45 22° WNW 06:04:02 33° NNW 06:06:46 10° NE
STARLINK-1095 3.6 06:02:58 22° WNW 06:04:16 33° NNW 06:06:59 10° NE
STARLINK-1077 3.6 06:03:11 22° WNW 06:04:30 33° NNW 06:07:12 10° NE
STARLINK-1075 3.6 06:03:23 21° WNW 06:04:43 33° NNW 06:07:26 10° NE
STARLINK-1093 3.6 06:03:36 21° WNW 06:04:57 33° NNW 06:07:39 10° NE
STARLINK-1074 3.6 06:03:48 21° WNW 06:05:09 33° NNW 06:07:52 10° NE
STARLINK-1087 3.6 06:04:02 21° WNW 06:05:24 33° NNW 06:08:06 10° NE
STARLINK-1088 3.6 06:04:14 21° WNW 06:05:35 32° NNW 06:08:17 10° NE
STARLINK-1115 3.6 06:04:28 21° WNW 06:05:51 32° NNW 06:08:32 10° NE
STARLINK-1076 3.6 06:04:41 21° WNW 06:06:05 32° NNW 06:08:46 10° NE
STARLINK-1092 3.6 06:04:55 21° WNW 06:06:18 32° NNW 06:09:00 10° NE
STARLINK-1080 3.6 06:05:06 20° WNW 06:06:30 32° NNW 06:09:12 10° NE
STARLINK-1090 3.6 06:05:20 20° WNW 06:06:45 32° NNW 06:09:26 10° NE
STARLINK-1089 3.7 06:05:33 20° WNW 06:06:59 32° NNW 06:09:40 10° NE
STARLINK-1107 3.7 06:05:45 20° WNW 06:07:10 32° NNW 06:09:51 10° NE
STARLINK-1109 3.7 06:05:59 20° WNW 06:07:26 31° NNW 06:10:06 10° NE
STARLINK-1091 3.7 06:06:12 20° WNW 06:07:40 31° NNW 06:10:20 10° NE
STARLINK-1072 3.7 06:06:24 20° WNW 06:07:52 31° NNW 06:10:33 10° NE
STARLINK-1096 3.7 06:06:37 19° WNW 06:08:04 31° NNW 06:10:45 10° NE
Cosmos 1238 Rocket 3.6 06:02:08 10° NNW 06:08:12 71° W 06:13:15 10° S
STARLINK-1079 3.7 06:06:51 19° WNW 06:08:19 31° NNW 06:11:00 10° NE
Cosmos 1459 Rocket 4.1 06:02:29 10° NNW 06:08:28 53° W 06:14:30 10° SSW
STARLINK-1116 3.7 06:07:04 19° WNW 06:08:33 31° NNW 06:11:14 10° NE
STARLINK-1094 3.7 06:07:30 19° WNW 06:09:00 31° NNW 06:11:40 10° NE
STARLINK-1117 3.7 06:07:42 19° WNW 06:09:13 31° NNW 06:11:53 10° NE
STARLINK-1078 3.7 06:07:55 19° WNW 06:09:27 30° NNW 06:12:07 10° NE
Cosmos 2061 Rocket 4.0 06:03:13 10° NNW 06:09:29 73° W 06:15:39 10° S
STARLINK-1108 3.7 06:08:08 19° WNW 06:09:41 30° NNW 06:12:20 10° NE
STARLINK-1071 3.7 06:08:21 18° WNW 06:09:53 30° NNW 06:12:32 10° NE
STARLINK-1110 3.7 06:08:34 18° WNW 06:10:08 30° NNW 06:12:47 10° NE
STARLINK-1122 3.8 06:09:01 18° WNW 06:10:35 30° NNW 06:13:14 10° NE
Cosmos 2369 Rocket 2.8 06:05:35 10° NW 06:10:42 35° WSW 06:15:47 10° SSW
STARLINK-1126 3.8 06:09:13 18° WNW 06:10:48 30° NNW 06:13:27 10° NE
H-2A R/B 3.7 06:07:08 10° NNE 06:10:48 51° E 06:14:25 10° S
STARLINK-1082 3.8 06:09:27 18° WNW 06:11:03 30° NNW 06:13:41 10° NE
STARLINK-1100 3.8 06:09:39 18° WNW 06:11:15 30° NNW 06:13:54 10° NE
STARLINK-1083 3.8 06:09:52 18° W 06:11:29 29° NNW 06:14:07 10° NE
STARLINK-1125 3.8 06:10:05 17° WNW 06:11:43 29° NNW 06:14:21 10° NE
USA 116 3.4 06:08:50 10° S 06:11:55 45° W 06:14:56 10° NNW
Cosmos 921 Rocket 3.5 06:09:02 10° NNW 06:13:09 39° W 06:17:10 10° S
Cosmos 1633 3.1 06:10:26 10° NNW 06:13:46 34° W 06:17:05 10° SSW
Cosmos 1603 4.4 06:08:42 10° WSW 06:13:50 33° NW 06:18:58 10° N
COSMO-SKYMED 1 3.5 06:13:34 10° SSW 06:17:14 27° W 06:20:56 10° NW
NOAA 6 4.0 06:13:09 10° N 06:18:19 70° WNW 06:23:26 10° SSW
Helios 1A Rocket 3.1 06:14:09 10° NNE 06:18:19 80° ESE 06:22:25 10° S
Cosmos 1943 3.7 06:13:30 10° SW 06:18:42 38° WNW 06:23:57 10° N
Cosmos 1725 Rocket 4.0 06:12:59 10° N 06:19:16 79° W 06:25:32 10° S
Lacrosse 5 2.8 06:15:15 11° WNW 06:19:26 30° SW 06:23:48 10° S
Cosmos 2123 Rocket 4.0 06:14:10 10° SSW 06:20:27 72° W 06:26:47 10° N
CZ-4B DEB 4.4 06:16:19 10° N 06:21:35 49° WNW 06:26:47 10° SW
BREEZE-M DEB (TANK) 3.8 06:16:29 10° WNW 06:22:06 40° NNE 06:25:46 10° E
Cosmos 2221 4.1 06:20:15 10° WSW 06:22:47 15° WNW 06:25:21 10° NNW
Cosmos 1633 Rocket 3.1 06:19:05 10° N 06:23:29 88° WSW 06:27:51 10° S
STARLINK-1098 3.8 06:20:27 10° WSW 06:24:24 51° NNW 06:28:22 10° NE
CZ-4C R/B 4.5 06:22:45 10° NNW 06:24:40 11° N 06:26:41 10° NNE
Cosmos 1656 Rocket 3.8 06:19:30 10° NNW 06:25:05 58° WSW 06:30:37 10° S
Cosmos 1862 3.5 06:21:15 10° NNW 06:25:05 49° W 06:28:54 10° S
Cosmos 1666 Rocket 3.5 06:21:39 10° NNW 06:26:05 68° W 06:30:25 10° S
STARLINK-1123 3.9 06:25:11 10° WSW 06:29:07 48° NNW 06:33:03 10° NE
Cosmos 482 Debris 2.2 06:27:44 11° WNW 06:29:27 72° SW 06:31:23 10° SE
ISS -0.8 06:27:23 10° S 06:29:38 17° SE 06:31:55 10° E
ATLAS 2AS CENTAUR R/B 4.1 06:22:38 10° NNW 06:29:46 39° NE 06:36:20 10° ESE
CZ-4B R/B 3.1 06:24:34 10° N 06:29:50 64° WNW 06:35:03 10° SSW
Cosmos 1802 Rocket 4.4 06:24:20 10° NNW 06:30:23 44° W 06:36:23 10° SSW
BREEZE-M DEB (TANK) 2.5 06:26:24 10° WSW 06:31:31 79° NNW 06:33:57 10° ENE
STARLINK-1097 4.0 06:30:05 10° WSW 06:33:59 45° NNW 06:37:53 10° NE
Iridium 51 4.2 06:30:41 10° S 06:34:40 74° W 06:38:22 10° N
ADEOS Rocket 3.2 06:29:21 10° S 06:35:27 64° W 06:42:18 10° NNW
ALOS 3.4 06:31:50 10° NNW 06:35:27 23° WNW 06:39:03 10° WSW
DELTA 2 R/B (1) 4.2 06:31:36 10° WSW 06:37:01 55° SSE 06:42:27 10° E
YAOGAN 6 4.3 06:35:11 10° NNE 06:38:30 39° E 06:41:50 10° SSE
STARLINK-1099 4.1 06:34:51 10° W 06:38:42 42° NNW 06:42:35 10° NE
